GLO1444 SBSP-SBGL

Flight info

Callsign GLO1444
Flight time 0h 39m
Altitude 29000
Route BAIA3A UREMI UZ42 VUREP PABE1B
Aircraft B738/M-SDFGIKLORWXY/LB1

Departure

Time 2026-05-06 13:17
Airport Congonhas–Deputado Freitas Nobre Airport (SBSP)

Arrival

Time 2026-05-06 13:56
Airport Rio Galeão – Tom Jobim International Airport (SBGL)
Time Latitude Longitude Altitude Speed Heading
2026-05-06 13:04 -23.62811 -46.65752 2600 ft 0 kts 238°
2026-05-06 13:09 -23.62807 -46.65745 2600 ft 4 kts 235°
2026-05-06 13:10 -23.62790 -46.65727 2600 ft 4 kts 184°
2026-05-06 13:10 -23.62770 -46.65733 2600 ft 4 kts 153°
2026-05-06 13:10 -23.62747 -46.65747 2600 ft 4 kts 148°
2026-05-06 13:10 -23.62730 -46.65758 2600 ft 0 kts 147°
2026-05-06 13:12 -23.62731 -46.65758 2600 ft 1 kts 147°
2026-05-06 13:12 -23.62776 -46.65727 2600 ft 10 kts 147°
2026-05-06 13:13 -23.62832 -46.65688 2600 ft 9 kts 147°
2026-05-06 13:13 -23.62876 -46.65640 2601 ft 9 kts 110°
2026-05-06 13:13 -23.62912 -46.65586 2602 ft 9 kts 144°
2026-05-06 13:13 -23.62963 -46.65550 2602 ft 9 kts 147°
2026-05-06 13:14 -23.63026 -46.65523 2602 ft 13 kts 173°
2026-05-06 13:14 -23.63115 -46.65481 2601 ft 14 kts 146°
2026-05-06 13:14 -23.63194 -46.65423 2601 ft 13 kts 146°
2026-05-06 13:14 -23.63270 -46.65366 2601 ft 13 kts 146°
2026-05-06 13:15 -23.63346 -46.65317 2601 ft 13 kts 149°
2026-05-06 13:15 -23.63419 -46.65268 2601 ft 12 kts 148°
2026-05-06 13:15 -23.63490 -46.65218 2600 ft 12 kts 139°
2026-05-06 13:15 -23.63482 -46.65141 2590 ft 12 kts 33°
2026-05-06 13:16 -23.63414 -46.65131 2601 ft 8 kts 338°
2026-05-06 13:16 -23.63401 -46.65138 2602 ft 0 kts 329°
2026-05-06 13:16 -23.63397 -46.65141 2602 ft 9 kts 329°
2026-05-06 13:16 -23.63093 -46.65351 2609 ft 95 kts 328°
2026-05-06 13:17 -23.62320 -46.65882 2601 ft 169 kts 328°
2026-05-06 13:17 -23.61222 -46.66634 3240 ft 185 kts 327°
2026-05-06 13:17 -23.60120 -46.67327 4355 ft 185 kts 346°
2026-05-06 13:17 -23.58918 -46.67157 5028 ft 175 kts 35°
2026-05-06 13:18 -23.58292 -46.66100 5471 ft 167 kts 78°
2026-05-06 13:18 -23.58259 -46.64783 5489 ft 188 kts 108°
2026-05-06 13:18 -23.58817 -46.63445 5487 ft 198 kts 117°
2026-05-06 13:18 -23.59433 -46.62132 5471 ft 193 kts 117°
2026-05-06 13:19 -23.60046 -46.60840 5465 ft 190 kts 113°
2026-05-06 13:19 -23.60421 -46.59477 5505 ft 187 kts 104°
2026-05-06 13:19 -23.60749 -46.58083 5473 ft 199 kts 104°
2026-05-06 13:19 -23.61135 -46.56447 5139 ft 242 kts 104°
2026-05-06 13:20 -23.61650 -46.54704 5663 ft 239 kts 123°
2026-05-06 13:20 -23.62831 -46.53492 6450 ft 236 kts 144°
2026-05-06 13:20 -23.64006 -46.52246 7240 ft 244 kts 118°
2026-05-06 13:20 -23.64455 -46.50370 7530 ft 272 kts 94°
2026-05-06 13:21 -23.64564 -46.48244 8113 ft 287 kts 92°
2026-05-06 13:21 -23.64666 -46.46055 8947 ft 291 kts 92°
2026-05-06 13:21 -23.64782 -46.43833 9839 ft 294 kts 93°
2026-05-06 13:21 -23.64912 -46.41588 10656 ft 300 kts 93°
2026-05-06 13:22 -23.65061 -46.39224 10943 ft 325 kts 94°
2026-05-06 13:22 -23.65226 -46.36736 11405 ft 339 kts 94°
2026-05-06 13:22 -23.65402 -46.34151 12135 ft 344 kts 94°
2026-05-06 13:22 -23.65584 -46.31536 12921 ft 347 kts 94°
2026-05-06 13:23 -23.65769 -46.28897 13667 ft 350 kts 94°
2026-05-06 13:23 -23.65955 -46.26236 14380 ft 355 kts 94°
2026-05-06 13:23 -23.66144 -46.23531 15084 ft 358 kts 94°
2026-05-06 13:23 -23.66335 -46.20810 15772 ft 362 kts 94°
2026-05-06 13:24 -23.66526 -46.18058 16436 ft 366 kts 94°
2026-05-06 13:24 -23.66675 -46.15276 17084 ft 370 kts 89°
2026-05-06 13:24 -23.66378 -46.12482 17706 ft 373 kts 77°
2026-05-06 13:24 -23.65584 -46.09777 18331 ft 376 kts 66°
2026-05-06 13:25 -23.64455 -46.07191 18940 ft 379 kts 63°
2026-05-06 13:25 -23.63262 -46.04606 19528 ft 383 kts 63°
2026-05-06 13:25 -23.62048 -46.02005 20083 ft 387 kts 63°
2026-05-06 13:25 -23.60841 -45.99408 20635 ft 390 kts 63°
2026-05-06 13:26 -23.59620 -45.96759 21170 ft 393 kts 63°
2026-05-06 13:26 -23.58393 -45.94079 21713 ft 396 kts 63°
2026-05-06 13:26 -23.57158 -45.91369 22212 ft 400 kts 63°
2026-05-06 13:26 -23.55920 -45.88647 22712 ft 403 kts 63°
2026-05-06 13:27 -23.54673 -45.85901 23191 ft 406 kts 63°
2026-05-06 13:27 -23.53413 -45.83129 23661 ft 409 kts 63°
2026-05-06 13:27 -23.52147 -45.80344 24120 ft 412 kts 63°
2026-05-06 13:27 -23.50871 -45.77537 24561 ft 415 kts 63°
2026-05-06 13:28 -23.49587 -45.74718 25103 ft 414 kts 63°
2026-05-06 13:28 -23.48310 -45.71913 25720 ft 412 kts 63°
2026-05-06 13:28 -23.47039 -45.69125 26324 ft 410 kts 63°
2026-05-06 13:28 -23.45771 -45.66343 26879 ft 409 kts 63°
2026-05-06 13:29 -23.44502 -45.63563 27393 ft 409 kts 63°
2026-05-06 13:29 -23.43237 -45.60792 27940 ft 408 kts 63°
2026-05-06 13:29 -23.41990 -45.58059 28472 ft 407 kts 63°
2026-05-06 13:29 -23.40727 -45.55296 28978 ft 407 kts 63°
2026-05-06 13:30 -23.39455 -45.52496 29288 ft 408 kts 65°
2026-05-06 13:30 -23.38465 -45.49613 29279 ft 406 kts 76°
2026-05-06 13:30 -23.37842 -45.46657 29301 ft 407 kts 77°
2026-05-06 13:31 -23.36616 -45.40622 29297 ft 408 kts 77°
2026-05-06 13:31 -23.35344 -45.34602 29299 ft 408 kts 77°
2026-05-06 13:32 -23.34055 -45.28593 29292 ft 408 kts 76°
2026-05-06 13:32 -23.32759 -45.22580 29297 ft 408 kts 76°
2026-05-06 13:33 -23.31463 -45.16570 29295 ft 407 kts 76°
2026-05-06 13:33 -23.30168 -45.10572 29295 ft 407 kts 76°
2026-05-06 13:34 -23.28871 -45.04575 29244 ft 408 kts 76°
2026-05-06 13:34 -23.28219 -45.01566 28817 ft 409 kts 76°
2026-05-06 13:34 -23.27566 -44.98555 28298 ft 408 kts 76°
2026-05-06 13:34 -23.26915 -44.95557 27775 ft 407 kts 76°
2026-05-06 13:35 -23.26264 -44.92560 27216 ft 407 kts 76°
2026-05-06 13:35 -23.25612 -44.89562 26652 ft 408 kts 76°
2026-05-06 13:35 -23.24959 -44.86560 26074 ft 408 kts 76°
2026-05-06 13:35 -23.24311 -44.83589 25492 ft 408 kts 76°
2026-05-06 13:36 -23.23654 -44.80577 24886 ft 409 kts 76°
2026-05-06 13:36 -23.22998 -44.77569 24270 ft 409 kts 76°
2026-05-06 13:36 -23.22339 -44.74556 23645 ft 410 kts 76°
2026-05-06 13:36 -23.21683 -44.71553 23148 ft 406 kts 76°
2026-05-06 13:37 -23.21032 -44.68577 22662 ft 403 kts 76°
2026-05-06 13:37 -23.20383 -44.65615 22157 ft 400 kts 76°
2026-05-06 13:37 -23.19740 -44.62683 21669 ft 397 kts 76°
2026-05-06 13:37 -23.19121 -44.59781 21237 ft 393 kts 77°
2026-05-06 13:38 -23.18520 -44.56888 20751 ft 390 kts 77°
2026-05-06 13:38 -23.17737 -44.54084 20259 ft 387 kts 67°
2026-05-06 13:38 -23.16609 -44.51434 19786 ft 384 kts 64°
2026-05-06 13:38 -23.15837 -44.49710 19461 ft 383 kts 64°
2026-05-06 13:39 -23.14664 -44.47125 18968 ft 380 kts 63°
2026-05-06 13:39 -23.13498 -44.44551 18490 ft 378 kts 64°
2026-05-06 13:39 -23.12348 -44.41993 17996 ft 376 kts 64°
2026-05-06 13:39 -23.11211 -44.39446 17526 ft 373 kts 64°
2026-05-06 13:40 -23.09705 -44.36058 16884 ft 370 kts 64°
2026-05-06 13:40 -23.08604 -44.33573 16410 ft 368 kts 64°
2026-05-06 13:40 -23.07856 -44.31884 16099 ft 367 kts 64°
2026-05-06 13:40 -23.06757 -44.29400 15620 ft 364 kts 64°
2026-05-06 13:41 -23.05660 -44.26924 15149 ft 362 kts 64°
2026-05-06 13:41 -23.04571 -44.24466 14680 ft 360 kts 64°
2026-05-06 13:41 -23.03488 -44.22024 14215 ft 358 kts 64°
2026-05-06 13:41 -23.02424 -44.19623 13751 ft 356 kts 64°
2026-05-06 13:42 -23.01352 -44.17207 13285 ft 354 kts 64°
2026-05-06 13:42 -23.00288 -44.14811 12825 ft 352 kts 64°
2026-05-06 13:42 -22.99227 -44.12422 12360 ft 350 kts 64°
2026-05-06 13:42 -22.98174 -44.10055 11902 ft 348 kts 64°
2026-05-06 13:43 -22.97125 -44.07695 11438 ft 346 kts 64°
2026-05-06 13:43 -22.96086 -44.05357 11012 ft 343 kts 64°
2026-05-06 13:43 -22.95068 -44.03069 10873 ft 331 kts 64°
2026-05-06 13:43 -22.94082 -44.00853 10708 ft 321 kts 64°
2026-05-06 13:44 -22.93121 -43.98699 10566 ft 312 kts 64°
2026-05-06 13:44 -22.92191 -43.96612 10431 ft 303 kts 64°
2026-05-06 13:44 -22.91285 -43.94578 10268 ft 295 kts 64°
2026-05-06 13:44 -22.90396 -43.92585 9957 ft 293 kts 64°
2026-05-06 13:45 -22.89511 -43.90599 9659 ft 291 kts 64°
2026-05-06 13:45 -22.87758 -43.86670 9061 ft 288 kts 64°
2026-05-06 13:45 -22.86898 -43.84743 8759 ft 287 kts 64°
2026-05-06 13:46 -22.86028 -43.82796 8448 ft 286 kts 64°
2026-05-06 13:46 -22.85164 -43.80860 8144 ft 285 kts 64°
2026-05-06 13:46 -22.84303 -43.78933 7833 ft 284 kts 64°
2026-05-06 13:46 -22.83445 -43.77011 7521 ft 282 kts 64°
2026-05-06 13:47 -22.82588 -43.75096 7227 ft 281 kts 64°
2026-05-06 13:47 -22.81737 -43.73194 6923 ft 280 kts 64°
2026-05-06 13:47 -22.80923 -43.71272 6613 ft 279 kts 70°
2026-05-06 13:47 -22.80414 -43.69246 6326 ft 278 kts 77°
2026-05-06 13:48 -22.79987 -43.67213 6057 ft 276 kts 77°
2026-05-06 13:48 -22.79553 -43.65222 5936 ft 267 kts 76°
2026-05-06 13:48 -22.79120 -43.63306 5813 ft 260 kts 76°
2026-05-06 13:48 -22.78689 -43.61420 5624 ft 256 kts 76°
2026-05-06 13:49 -22.78255 -43.59549 5370 ft 255 kts 76°
2026-05-06 13:49 -22.77825 -43.57705 5210 ft 249 kts 76°
2026-05-06 13:49 -22.77398 -43.55893 4965 ft 248 kts 74°
2026-05-06 13:49 -22.76788 -43.54157 4764 ft 245 kts 66°
2026-05-06 13:50 -22.76096 -43.52479 4555 ft 242 kts 66°
2026-05-06 13:50 -22.75417 -43.50820 4337 ft 240 kts 66°
2026-05-06 13:50 -22.74762 -43.49195 4142 ft 237 kts 67°
2026-05-06 13:50 -22.74111 -43.47565 3918 ft 235 kts 67°
2026-05-06 13:51 -22.73462 -43.45938 3680 ft 234 kts 66°
2026-05-06 13:51 -22.72832 -43.44350 3464 ft 224 kts 66°
2026-05-06 13:51 -22.72232 -43.42839 3219 ft 212 kts 66°
2026-05-06 13:51 -22.71828 -43.41349 2953 ft 202 kts 91°
2026-05-06 13:52 -22.72243 -43.39967 2828 ft 189 kts 121°
2026-05-06 13:52 -22.72960 -43.38817 2621 ft 179 kts 125°
2026-05-06 13:52 -22.73683 -43.37739 2460 ft 172 kts 126°
2026-05-06 13:52 -22.74371 -43.36712 2260 ft 165 kts 126°
2026-05-06 13:53 -22.75036 -43.35719 2090 ft 162 kts 125°
2026-05-06 13:53 -22.75698 -43.34729 1941 ft 161 kts 125°
2026-05-06 13:53 -22.76346 -43.33757 1711 ft 156 kts 125°
2026-05-06 13:53 -22.76969 -43.32825 1516 ft 154 kts 125°
2026-05-06 13:54 -22.77596 -43.31879 1317 ft 154 kts 125°
2026-05-06 13:54 -22.78223 -43.30933 1116 ft 155 kts 125°
2026-05-06 13:54 -22.78851 -43.29983 909 ft 154 kts 125°
2026-05-06 13:54 -22.79476 -43.29040 702 ft 153 kts 125°
2026-05-06 13:55 -22.80097 -43.28102 504 ft 153 kts 125°
2026-05-06 13:55 -22.80713 -43.27159 249 ft 154 kts 124°
2026-05-06 13:55 -22.81328 -43.26230 42 ft 150 kts 125°
2026-05-06 13:55 -22.81893 -43.25380 26 ft 134 kts 125°
2026-05-06 13:56 -22.82348 -43.24704 20 ft 111 kts 122°
2026-05-06 13:56 -22.82521 -43.24410 20 ft 0 kts 102°
2026-05-06 13:56 -22.82514 -43.24346 21 ft 24 kts 68°
2026-05-06 13:56 -22.82402 -43.24350 18 ft 20 kts 311°
2026-05-06 13:57 -22.82329 -43.24456 19 ft 19 kts 306°
2026-05-06 13:57 -22.82299 -43.24501 19 ft 0 kts 306°
2026-05-06 13:57 -22.82287 -43.24520 20 ft 8 kts 306°
2026-05-06 13:57 -22.82246 -43.24581 20 ft 12 kts 306°
2026-05-06 13:58 -22.82195 -43.24656 18 ft 13 kts 306°
2026-05-06 13:58 -22.82130 -43.24725 19 ft 13 kts 346°
2026-05-06 13:58 -22.82051 -43.24684 21 ft 13 kts 31°
2026-05-06 13:58 -22.81978 -43.24632 20 ft 12 kts 33°
2026-05-06 13:59 -22.81898 -43.24611 20 ft 12 kts
2026-05-06 13:59 -22.81827 -43.24565 22 ft 12 kts 27°
2026-05-06 13:59 -22.81750 -43.24576 21 ft 12 kts 326°
2026-05-06 13:59 -22.81694 -43.24635 21 ft 11 kts 307°
2026-05-06 14:00 -22.81651 -43.24698 21 ft 6 kts 318°
2026-05-06 14:00 -22.81607 -43.24697 21 ft 7 kts 24°
2026-05-06 14:00 -22.81590 -43.24689 21 ft 0 kts 25°